EAG5534 OPSD-VILH

Flight info

Callsign EAG5534
Flight time 0h 27m
Altitude 27000
Route 3444N07620E 3420N07651E DCT TUNPU DCT 3400N07739E DCT LEH DCT 3408N07733E 3411N07729E 3408N07727E DCT 3407N07729E
Aircraft B738/M-SDE2E3FGHIRWXY/LB1

Departure

Time 2026-04-21 22:43
Airport Skardu International Airport (OPSD)

Arrival

Time 2026-04-21 23:11
Airport Leh Kushok Bakula Rimpochee Airport (VILH)
Time Latitude Longitude Altitude Speed Heading
2026-04-21 22:32 35.33028 75.54067 7302 ft 0 kts 147°
2026-04-21 22:38 35.33026 75.54076 7301 ft 2 kts 78°
2026-04-21 22:38 35.33058 75.54109 7300 ft 10 kts 40°
2026-04-21 22:38 35.33131 75.54179 7299 ft 17 kts 43°
2026-04-21 22:39 35.33213 75.54304 7298 ft 20 kts 57°
2026-04-21 22:39 35.33288 75.54440 7299 ft 19 kts 53°
2026-04-21 22:39 35.33378 75.54552 7300 ft 19 kts 16°
2026-04-21 22:39 35.33497 75.54507 7299 ft 18 kts 332°
2026-04-21 22:40 35.33596 75.54419 7295 ft 17 kts 324°
2026-04-21 22:40 35.33700 75.54336 7293 ft 21 kts 328°
2026-04-21 22:40 35.33862 75.54210 7290 ft 33 kts 327°
2026-04-21 22:40 35.34091 75.54025 7290 ft 45 kts 327°
2026-04-21 22:41 35.34354 75.53814 7294 ft 44 kts 327°
2026-04-21 22:41 35.34610 75.53611 7283 ft 45 kts 326°
2026-04-21 22:41 35.34873 75.53403 7278 ft 45 kts 327°
2026-04-21 22:41 35.35119 75.53210 7276 ft 28 kts 327°
2026-04-21 22:42 35.35257 75.53103 7271 ft 23 kts 309°
2026-04-21 22:42 35.35212 75.52933 7270 ft 22 kts 237°
2026-04-21 22:42 35.35085 75.52892 7269 ft 28 kts 154°
2026-04-21 22:42 35.34708 75.53185 7273 ft 99 kts 147°
2026-04-21 22:43 35.33947 75.53790 7289 ft 159 kts 147°
2026-04-21 22:43 35.32879 75.54635 7462 ft 198 kts 148°
2026-04-21 22:43 35.31771 75.55629 8258 ft 198 kts 136°
2026-04-21 22:43 35.30882 75.56942 9031 ft 203 kts 126°
2026-04-21 22:44 35.30108 75.58362 9916 ft 199 kts 122°
2026-04-21 22:44 35.29409 75.59804 10765 ft 196 kts 121°
2026-04-21 22:44 35.28709 75.61264 11455 ft 202 kts 119°
2026-04-21 22:44 35.28130 75.62845 12008 ft 207 kts 108°
2026-04-21 22:45 35.27802 75.64545 12700 ft 201 kts 101°
2026-04-21 22:45 35.27543 75.66212 13424 ft 199 kts 101°
2026-04-21 22:45 35.27272 75.67911 13879 ft 207 kts 100°
2026-04-21 22:45 35.26992 75.69668 14176 ft 217 kts 100°
2026-04-21 22:46 35.26887 75.71535 14456 ft 225 kts 79°
2026-04-21 22:46 35.27326 75.73378 14828 ft 227 kts 72°
2026-04-21 22:46 35.27804 75.75209 15188 ft 231 kts 77°
2026-04-21 22:46 35.27784 75.77155 15526 ft 232 kts 109°
2026-04-21 22:47 35.26928 75.78801 15922 ft 231 kts 136°
2026-04-21 22:47 35.25683 75.80052 16293 ft 233 kts 144°
2026-04-21 22:47 35.24336 75.81245 16458 ft 248 kts 146°
2026-04-21 22:47 35.22888 75.82519 16569 ft 264 kts 146°
2026-04-21 22:48 35.21358 75.83857 16801 ft 275 kts 146°
2026-04-21 22:48 35.19788 75.85235 17213 ft 279 kts 146°
2026-04-21 22:48 35.18211 75.86623 17670 ft 280 kts 146°
2026-04-21 22:48 35.17163 75.87547 17971 ft 282 kts 146°
2026-04-21 22:49 35.15556 75.88973 18289 ft 289 kts 146°
2026-04-21 22:49 35.13923 75.90422 18730 ft 292 kts 146°
2026-04-21 22:49 35.12321 75.92053 18956 ft 308 kts 134°
2026-04-21 22:49 35.10907 75.94135 19104 ft 329 kts 130°
2026-04-21 22:50 35.08982 75.97138 19479 ft 345 kts 130°
2026-04-21 22:50 35.07968 75.98698 19840 ft 348 kts 130°
2026-04-21 22:50 35.06465 76.00961 20463 ft 349 kts 131°
2026-04-21 22:50 35.04887 76.03277 21069 ft 352 kts 132°
2026-04-21 22:51 35.03317 76.05539 21627 ft 355 kts 133°
2026-04-21 22:51 35.01699 76.07849 22090 ft 359 kts 133°
2026-04-21 22:51 35.00043 76.10189 22360 ft 372 kts 133°
2026-04-21 22:51 34.98304 76.12622 22465 ft 389 kts 133°
2026-04-21 22:52 34.96492 76.15152 22608 ft 402 kts 133°
2026-04-21 22:52 34.94636 76.17763 22896 ft 410 kts 133°
2026-04-21 22:52 34.92751 76.20386 23481 ft 411 kts 133°
2026-04-21 22:52 34.90860 76.23013 24001 ft 414 kts 133°
2026-04-21 22:53 34.88954 76.25662 24414 ft 418 kts 133°
2026-04-21 22:53 34.87057 76.28300 24834 ft 421 kts 133°
2026-04-21 22:53 34.85125 76.30986 25294 ft 423 kts 133°
2026-04-21 22:53 34.83178 76.33693 25735 ft 426 kts 133°
2026-04-21 22:54 34.81217 76.36415 26173 ft 429 kts 133°
2026-04-21 22:54 34.79249 76.39145 26691 ft 429 kts 133°
2026-04-21 22:54 34.77268 76.41889 26910 ft 437 kts 133°
2026-04-21 22:54 34.75236 76.44700 27008 ft 447 kts 133°
2026-04-21 22:55 34.73163 76.47566 27147 ft 456 kts 133°
2026-04-21 22:55 34.71055 76.50481 27228 ft 461 kts 132°
2026-04-21 22:55 34.68921 76.53429 27252 ft 468 kts 132°
2026-04-21 22:55 34.66753 76.56419 27251 ft 475 kts 132°
2026-04-21 22:56 34.64552 76.59453 27254 ft 482 kts 132°
2026-04-21 22:56 34.62325 76.62520 27250 ft 487 kts 132°
2026-04-21 22:56 34.60072 76.65620 27267 ft 492 kts 132°
2026-04-21 22:56 34.57791 76.68758 27260 ft 497 kts 132°
2026-04-21 22:57 34.55505 76.71900 27246 ft 497 kts 132°
2026-04-21 22:57 34.53218 76.75039 27242 ft 496 kts 132°
2026-04-21 22:57 34.50961 76.78135 27234 ft 494 kts 132°
2026-04-21 22:57 34.48685 76.81253 27264 ft 493 kts 133°
2026-04-21 22:58 34.46409 76.84368 27261 ft 492 kts 133°
2026-04-21 22:58 34.44134 76.87479 27272 ft 492 kts 132°
2026-04-21 22:58 34.41865 76.90578 27245 ft 492 kts 132°
2026-04-21 22:58 34.39595 76.93678 27260 ft 490 kts 132°
2026-04-21 22:59 34.37373 76.96708 27154 ft 473 kts 132°
2026-04-21 22:59 34.35220 76.99642 26976 ft 459 kts 133°
2026-04-21 22:59 34.33132 77.02489 26753 ft 447 kts 133°
2026-04-21 22:59 34.31077 77.05264 26316 ft 438 kts 133°
2026-04-21 23:00 34.29052 77.07973 25716 ft 429 kts 133°
2026-04-21 23:00 34.27151 77.10701 25025 ft 423 kts 130°
2026-04-21 23:00 34.25295 77.13454 24223 ft 421 kts 131°
2026-04-21 23:00 34.23429 77.16185 23374 ft 419 kts 131°
2026-04-21 23:01 34.21709 77.19017 22410 ft 418 kts 121°
2026-04-21 23:01 34.20364 77.22098 21329 ft 421 kts 117°
2026-04-21 23:01 34.19085 77.25289 20427 ft 425 kts 116°
2026-04-21 23:01 34.17781 77.28508 19712 ft 426 kts 117°
2026-04-21 23:02 34.16370 77.31675 18217 ft 434 kts 123°
2026-04-21 23:02 34.14656 77.34668 17076 ft 429 kts 127°
2026-04-21 23:02 34.12964 77.37624 15763 ft 429 kts 121°
2026-04-21 23:02 34.11595 77.40781 14861 ft 419 kts 114°
2026-04-21 23:03 34.10656 77.44033 14329 ft 400 kts 102°
2026-04-21 23:03 34.10391 77.47281 13940 ft 380 kts 90°
2026-04-21 23:03 34.10518 77.50411 13449 ft 368 kts 85°
2026-04-21 23:03 34.10737 77.53421 13179 ft 352 kts 84°
2026-04-21 23:04 34.10937 77.56288 13015 ft 333 kts 86°
2026-04-21 23:04 34.10818 77.58966 13246 ft 307 kts 101°
2026-04-21 23:04 34.10152 77.61289 13439 ft 281 kts 121°
2026-04-21 23:04 34.08926 77.62971 13421 ft 267 kts 148°
2026-04-21 23:05 34.07199 77.63602 13288 ft 253 kts 180°
2026-04-21 23:05 34.05526 77.63211 12987 ft 247 kts 203°
2026-04-21 23:05 34.04227 77.62019 13235 ft 222 kts 235°
2026-04-21 23:05 34.03798 77.60259 13211 ft 230 kts 278°
2026-04-21 23:06 34.04376 77.58455 13361 ft 234 kts 305°
2026-04-21 23:06 34.05462 77.56991 13332 ft 237 kts 315°
2026-04-21 23:06 34.06666 77.55661 13264 ft 238 kts 317°
2026-04-21 23:06 34.07853 77.54294 12982 ft 235 kts 314°
2026-04-21 23:07 34.08916 77.52896 12768 ft 216 kts 308°
2026-04-21 23:07 34.09800 77.51480 12508 ft 208 kts 308°
2026-04-21 23:07 34.10668 77.50077 12053 ft 206 kts 300°
2026-04-21 23:07 34.11214 77.48549 11924 ft 190 kts 292°
2026-04-21 23:08 34.11633 77.47131 12130 ft 166 kts 290°
2026-04-21 23:08 34.12022 77.45806 12064 ft 175 kts 295°
2026-04-21 23:08 34.12777 77.44743 12073 ft 166 kts 332°
2026-04-21 23:08 34.13845 77.44536 12111 ft 154 kts 18°
2026-04-21 23:09 34.14575 77.45395 11883 ft 158 kts 79°
2026-04-21 23:09 34.14201 77.46648 11530 ft 172 kts 128°
2026-04-21 23:09 34.13554 77.47848 11398 ft 170 kts 112°
2026-04-21 23:09 34.13182 77.49207 11290 ft 173 kts 107°
2026-04-21 23:10 34.12819 77.50558 11032 ft 166 kts 104°
2026-04-21 23:10 34.12799 77.51892 10779 ft 155 kts 74°
2026-04-21 23:10 34.13148 77.53056 10607 ft 140 kts 70°
2026-04-21 23:10 34.13417 77.53976 10650 ft 69 kts 70°
2026-04-21 23:11 34.13520 77.54355 10685 ft 23 kts 72°
2026-04-21 23:11 34.13604 77.54415 10696 ft 15 kts 343°
2026-04-21 23:11 34.13699 77.54364 10711 ft 15 kts 334°
2026-04-21 23:11 34.13786 77.54306 10713 ft 14 kts 312°
2026-04-21 23:12 34.13784 77.54189 10706 ft 10 kts 240°
2026-04-21 23:12 34.13728 77.54166 10701 ft 7 kts 156°
2026-04-21 23:12 34.13714 77.54174 10701 ft 0 kts 156°